Home > Weather > St. Paul > Past weeks

Flag for USA Past Weather in St. Paul, Minnesota, USA — Yesterday and Last 2 Weeks

Now
68 °F

Strong thunderstorms. Fog.


Feels Like: 68 °F
Forecast: 70 / 81 °F
Wind: 6 mph from South

Location: St. Paul Downtown Holman Field

Current Time: Aug 23, 2016 at 11:23:31 PM

Latest Report: Aug 23, 2016 at 11:00 PM


Visibility: 1 mi

Pressure: 29.86 "Hg

Humidity: 93%

Dew Point: 66 °F

Location of St. PaulLocation

Past Weather in St. Paul — Graph

°F

St. Paul Temperature Yesterday

Maximum temperature yesterday: 82 °F (at 2:53 PM)
Minimum temperature yesterday: 57 °F (at 5:53 AM)
Average temperature yesterday: 70 °F

High & Low Weather Summary for the Past Weeks

 TemperatureHumidityPressure
High88 °F (Aug 10, 3:53 PM)100% (Aug 17, 3:53 AM)30.09 "Hg (Aug 17, 3:53 AM)
Low55 °F (Aug 21, 6:53 AM)41% (Aug 21, 3:53 PM)29.73 "Hg (Aug 20, 5:53 AM)
Average72 °F77%29.92 "Hg
* Reported Aug 8 9:53 PM — Aug 23 9:53 PM, St. Paul, Weather by CustomWeather, © 2016

Note: Actual official high and low records may vary slightly from our data, if they occured in-between our weather recording intervals... More about our weather records

Advertising

St. Paul Weather History for the Previous 24 Hours

Scroll right to see more
 ConditionsComfort  
Time TempWeatherWind HumidityBarometerVisibility
9:53 PM
Tue, Aug 23
70 °FLight rain. Mostly cloudy.14 mph90%29.84 "Hg10 mi
8:53 PM71 °FLight rain. Scattered clouds.14 mph84%29.85 "Hg10 mi
7:53 PM73 °FLight rain. Passing clouds.10 mph76%29.82 "Hg10 mi
6:53 PM76 °FSunny.15 mph67%29.87 "Hg10 mi
5:53 PM78 °FSunny.15 mph64%29.90 "Hg10 mi
4:53 PM80 °FPassing clouds.20 mph64%29.89 "Hg10 mi
3:53 PM82 °FPassing clouds.17 mph65%29.88 "Hg10 mi
2:53 PM81 °FSunny.16 mph69%29.89 "Hg10 mi
1:53 PM83 °FSunny.15 mph65%29.89 "Hg10 mi
12:53 PM81 °FSunny.14 mph65%29.90 "Hg10 mi
11:53 AM79 °FSunny.16 mph65%29.91 "Hg10 mi
10:53 AM76 °FSunny.16 mph67%29.93 "Hg10 mi
9:53 AM74 °FSunny.14 mph69%29.93 "Hg10 mi
8:53 AM71 °FSunny.10 mph73%29.94 "Hg10 mi
7:53 AM67 °FSunny.8 mph79%29.95 "Hg10 mi
6:53 AM65 °FClear.7 mph85%29.95 "Hg10 mi
5:53 AM66 °FClear.9 mph81%29.93 "Hg10 mi
4:53 AM66 °FClear.7 mph81%29.92 "Hg10 mi
3:53 AM67 °FClear.8 mph79%29.93 "Hg10 mi
2:53 AM68 °FClear.10 mph76%29.93 "Hg10 mi
1:53 AM69 °FClear.9 mph73%29.93 "Hg10 mi
12:53 AM70 °FClear.9 mph71%29.94 "Hg10 mi
11:53 PM
Mon, Aug 22
70 °FClear.10 mph73%29.93 "Hg10 mi
Weather by CustomWeather, © 2016

See weather overviewHow to use our weather pages